Theta_e
338 339 342 338 339 336 333 334 332 329 325 325 324 327 328 328 329 330 330 329 329 327 327 326 325 325 328 329 329 329 330 332 334 335 334 327 318 315 322 330 335 335 334 332 332 332 323 317 319 320 317 315 316 316 316 315 316 319 321 323 325 327 329 330 331 331 331 331 332 332 332 333 332 332 332 331 330 329 328 329 330 330 329 328 327
337 339 341 338 338 333 332 333 333 332 329 327 325 327 328 329 330 330 331 330 330 329 327 326 326 326 327 326 327 329 332 335 336 336 328 317 313 321 331 335 336 335 334 332 332 330 323 316 314 315 315 316 317 317 317 316 315 316 316 317 318 321 324 328 330 330 331 331 332 332 331 332 332 332 331 330 329 327 326 328 329 330 329 326 324
337 340 340 337 337 332 330 332 332 333 332 329 327 326 328 329 330 331 331 331 330 329 328 327 327 328 330 328 328 332 336 337 337 333 321 314 318 329 335 335 336 335 334 333 331 329 324 319 315 314 314 316 318 318 318 318 318 317 315 315 314 314 316 320 325 328 330 331 331 330 330 330 331 331 330 330 328 326 324 324 326 327 324 321 320
338 340 341 337 337 333 329 331 330 331 331 330 329 327 327 329 331 331 331 331 331 330 328 327 327 330 333 333 333 336 337 337 333 325 317 320 328 333 335 335 336 335 335 333 331 327 323 320 316 315 316 318 319 319 320 320 319 318 317 317 316 314 312 312 317 322 326 329 329 328 330 330 330 329 329 329 328 325 323 321 322 322 319 320 324
337 340 342 338 337 334 330 330 328 328 329 329 330 327 328 329 331 331 332 331 330 330 328 327 329 332 336 336 337 337 337 333 326 318 317 325 332 335 335 335 335 334 334 332 331 328 323 320 317 317 320 320 320 321 320 320 320 320 320 319 318 316 313 310 312 314 318 324 327 328 329 330 330 328 328 329 327 325 324 323 321 321 323 326 327
337 338 342 340 339 337 331 331 328 327 326 327 328 327 328 330 331 331 331 331 331 330 329 328 329 334 337 338 338 337 335 328 320 316 321 329 333 334 335 335 335 334 333 332 332 330 324 320 319 320 322 321 322 321 320 322 321 322 323 321 319 316 314 312 312 316 320 323 325 327 326 327 329 328 328 329 327 324 324 323 320 322 327 328 328
336 333 338 341 340 338 332 331 330 327 327 325 326 326 327 329 331 331 331 331 330 330 330 331 331 335 338 338 338 335 329 321 318 321 327 332 334 334 335 335 335 334 334 332 332 331 327 321 320 321 321 322 322 322 322 323 322 323 323 322 320 318 315 313 314 321 325 326 326 327 326 326 328 328 328 328 326 324 324 321 321 326 329 328 329
336 330 335 340 340 338 333 331 330 329 328 326 326 325 326 328 330 330 331 330 331 331 331 332 333 336 337 337 336 331 322 317 322 328 331 334 334 334 334 334 334 334 334 333 333 333 330 324 321 320 321 322 322 323 324 323 324 325 324 323 322 319 316 314 318 324 326 327 327 327 328 328 329 328 326 326 327 325 323 320 321 328 329 328 328
336 333 335 338 339 337 333 331 330 330 329 328 327 325 327 328 330 330 331 331 333 333 332 333 334 336 337 337 333 324 318 320 328 331 332 333 333 333 333 333 333 333 332 333 333 333 332 328 324 320 321 324 324 324 325 325 325 325 324 324 322 321 318 316 320 325 327 327 327 329 331 331 330 329 327 327 327 324 322 322 322 326 328 327 328
337 336 335 338 339 335 333 333 331 332 331 330 328 326 327 329 330 330 331 332 334 334 333 334 336 337 337 334 326 319 319 325 332 333 333 332 332 332 331 332 332 331 331 331 332 333 333 331 325 319 323 326 325 325 325 326 326 326 325 324 323 321 320 322 325 326 328 327 326 328 330 331 330 329 328 327 327 324 322 324 323 324 326 326 327
339 337 336 339 338 333 334 335 333 334 333 330 328 327 328 330 331 330 331 333 334 334 333 335 336 337 337 330 320 318 322 330 333 333 333 332 332 331 330 330 329 328 327 326 327 329 329 331 326 320 324 325 324 325 325 326 326 326 326 325 324 322 321 326 328 328 328 327 325 325 327 328 329 329 328 326 326 325 323 322 319 322 326 323 323
342 338 337 338 336 332 335 335 334 334 332 328 328 328 329 330 331 331 332 333 334 334 334 335 336 338 337 327 318 319 326 332 334 334 334 333 332 331 330 329 328 327 325 323 322 325 326 329 328 320 322 324 323 325 325 326 326 326 326 326 325 323 323 326 329 328 327 326 325 325 326 327 326 325 325 324 324 323 321 321 318 319 322 321 318
341 339 338 336 335 334 335 334 334 333 329 327 328 330 330 330 331 331 332 334 334 335 335 336 337 338 334 323 317 323 329 334 335 334 334 333 333 332 331 330 330 329 325 322 319 319 321 323 325 320 321 324 324 325 326 326 326 326 326 326 326 325 324 326 328 329 327 325 325 324 325 325 323 321 322 323 324 323 322 324 323 320 318 317 316
340 340 338 336 335 334 333 333 334 332 329 328 329 330 331 330 330 331 332 334 334 335 336 337 337 335 328 319 319 327 331 334 335 334 334 334 334 333 332 332 333 329 323 322 315 314 315 314 318 320 321 324 324 325 326 326 326 326 326 326 326 325 324 326 328 329 328 326 325 324 325 322 318 322 323 323 323 323 324 325 325 323 320 318 319
339 340 338 336 334 333 333 334 333 332 330 331 331 330 330 330 330 331 332 333 334 334 336 337 335 330 324 318 320 327 333 335 335 335 335 334 334 334 334 333 333 327 322 320 314 313 315 310 316 322 322 324 324 325 326 326 327 326 326 325 326 326 325 328 329 329 329 327 326 326 326 316 311 320 323 324 323 322 323 322 324 325 323 321 321
339 339 338 336 335 334 334 334 334 332 330 331 332 331 330 330 330 330 331 333 333 334 335 335 331 326 322 319 322 328 333 335 335 335 335 335 334 334 334 333 331 325 321 319 313 315 316 313 319 323 324 325 325 326 326 326 326 326 326 325 326 326 327 328 328 329 329 328 327 327 328 316 308 315 320 324 323 322 321 319 324 324 322 320 319
339 338 338 336 335 335 334 334 333 331 329 330 332 331 329 329 329 329 331 333 333 335 335 332 328 324 320 320 325 330 333 334 335 335 334 335 334 334 333 332 330 324 320 318 313 314 317 319 323 324 325 325 325 326 326 327 326 325 325 325 326 326 327 328 328 329 328 328 327 327 328 317 308 311 316 322 322 322 322 322 324 323 320 318 319
338 337 338 336 335 335 335 335 332 330 327 329 330 330 329 328 327 328 331 334 335 335 332 329 327 324 322 323 328 332 333 333 334 334 334 334 334 334 332 331 329 323 321 320 315 315 319 323 324 325 326 325 326 327 326 326 326 325 325 325 325 326 327 328 328 328 328 328 328 328 325 314 308 310 310 315 316 318 322 323 322 321 319 317 319
338 337 337 335 334 335 335 335 333 329 326 328 329 329 330 328 327 330 332 335 335 332 329 328 328 325 324 326 330 332 332 332 332 333 334 333 333 333 332 329 326 321 321 321 318 318 322 325 325 326 327 326 327 326 326 326 326 326 326 325 325 326 327 329 329 328 329 328 328 327 322 313 308 310 307 308 311 313 318 321 319 319 319 318 319
337 337 337 334 334 334 334 335 333 329 328 330 330 331 332 329 329 332 334 335 333 329 328 329 330 328 327 327 328 330 331 330 330 332 332 332 333 333 332 328 323 321 321 319 318 318 321 325 326 327 327 328 327 326 326 326 326 326 326 325 326 328 328 329 330 329 329 327 328 326 321 314 309 309 308 307 308 309 312 315 314 316 318 316 313
337 337 337 335 335 334 334 335 333 330 330 331 331 331 332 331 331 333 336 335 332 331 331 331 330 330 330 329 327 329 331 330 331 333 332 332 332 331 330 325 321 320 320 319 319 318 319 322 326 327 327 328 327 327 327 326 326 326 326 326 327 330 330 330 330 330 330 328 328 325 319 314 309 309 309 307 306 307 310 313 313 314 313 310 307
338 336 336 336 335 334 335 335 333 332 332 332 332 331 332 333 332 335 337 334 333 333 333 332 331 331 329 326 327 330 333 332 332 333 332 332 331 329 328 323 320 320 320 321 320 320 319 318 321 324 327 327 327 328 328 328 326 325 326 328 329 331 330 329 330 331 330 329 328 323 317 315 311 308 310 310 308 306 308 311 313 311 306 305 305
337 336 336 336 335 335 335 335 333 334 334 332 332 333 334 334 331 335 336 333 334 334 333 334 332 330 328 325 326 330 333 333 333 334 333 332 330 328 326 321 320 320 320 321 321 321 320 318 318 319 323 324 327 329 330 330 329 327 328 331 331 330 329 329 330 331 329 329 328 322 317 314 312 309 309 310 309 308 306 306 307 306 303 304 304
337 337 337 336 335 335 335 334 333 333 333 332 332 333 335 334 332 334 335 334 334 334 333 334 332 330 330 327 325 328 332 333 332 331 331 330 327 324 324 321 320 321 321 323 323 322 320 320 318 317 319 322 327 330 329 330 330 330 331 331 331 329 329 330 331 330 329 329 325 321 317 314 313 309 308 309 309 309 308 306 306 305 305 304 304
338 338 337 336 334 334 334 334 333 333 333 332 332 334 335 335 335 336 335 335 335 334 333 333 333 331 330 328 325 325 329 332 329 328 329 330 328 324 323 323 323 323 322 327 328 324 324 326 323 320 324 326 328 329 329 330 330 331 331 330 331 329 330 331 331 330 330 328 321 317 317 315 313 309 307 308 308 309 309 308 308 307 307 306 306
338 338 338 337 334 334 334 334 333 333 334 333 333 333 335 335 337 338 337 337 336 334 334 332 331 330 328 326 325 326 327 328 327 327 328 328 329 327 328 328 327 326 324 329 330 327 329 330 329 328 329 329 327 328 329 330 330 330 331 331 331 330 331 330 330 330 331 327 317 315 316 313 311 308 306 306 306 308 308 308 308 308 308 308 308
339 338 337 337 335 333 334 335 334 334 333 333 333 333 334 334 336 337 336 338 337 335 335 332 329 328 327 325 326 327 325 324 323 324 321 323 326 324 328 330 328 328 326 329 330 328 330 330 330 329 328 328 327 327 329 329 330 330 331 331 330 330 331 330 330 330 331 327 317 315 315 311 309 307 307 307 305 305 305 306 306 306 307 307 308
339 338 338 337 336 335 334 335 335 334 332 331 331 332 333 333 336 336 335 337 336 336 335 331 328 326 327 326 326 328 328 328 327 324 320 322 323 319 325 329 329 330 327 329 331 329 330 329 329 328 328 328 327 327 329 330 330 331 331 331 330 330 330 331 331 330 331 329 321 316 314 311 309 308 309 309 309 308 306 306 306 305 304 304 305
338 339 339 337 335 335 334 334 335 335 333 331 330 331 333 334 336 336 335 336 335 336 334 330 328 325 328 330 330 332 332 333 332 331 327 325 323 315 320 328 329 330 328 329 332 331 330 330 329 329 329 329 328 328 329 331 331 332 332 330 330 330 331 331 331 331 331 331 327 320 316 314 312 311 311 311 312 311 309 308 308 307 306 305 305
338 339 339 337 334 334 334 334 334 334 333 331 330 331 332 334 336 337 336 336 335 335 332 331 330 326 329 331 332 334 333 334 333 334 332 330 328 319 317 325 327 327 327 329 331 331 331 331 331 331 331 330 330 330 330 331 332 332 331 330 330 330 331 332 332 332 331 332 330 324 319 318 317 314 313 312 312 312 311 311 310 310 311 310 309
338 338 339 338 335 334 334 333 333 334 332 331 331 331 332 334 337 337 335 335 334 334 333 332 331 329 330 331 332 334 333 334 332 333 333 333 334 327 320 324 326 325 326 330 331 331 332 332 332 332 332 332 332 332 332 332 332 331 330 330 330 331 331 332 332 332 332 333 332 329 326 323 321 320 318 315 313 312 312 312 313 313 313 314 314
337 337 338 338 336 335 335 333 332 333 333 331 332 333 333 335 337 336 336 336 334 334 333 332 331 330 331 331 332 332 333 333 332 333 333 333 335 332 325 322 325 327 326 329 331 331 333 332 332 331 331 333 333 333 333 332 332 331 331 331 331 331 331 331 332 332 332 332 333 333 331 328 326 325 324 321 319 317 314 313 313 313 314 314 315
337 337 338 338 337 337 336 334 333 333 333 332 332 334 335 336 337 337 338 335 333 334 333 332 331 331 331 332 332 333 334 334 333 333 333 334 334 333 328 321 323 327 324 327 330 331 332 331 331 331 331 333 333 333 333 333 333 332 332 332 332 332 332 332 332 333 332 332 333 334 333 332 331 330 329 327 325 323 321 318 316 315 315 314 314
338 336 337 338 337 337 336 335 333 333 334 333 332 334 336 338 338 338 337 334 334 335 333 331 331 331 332 332 333 334 335 335 335 334 333 334 333 331 330 323 321 322 320 325 330 330 330 331 332 331 332 332 333 333 333 333 333 333 333 333 333 333 333 333 333 333 333 333 333 333 333 333 333 333 332 330 329 329 327 324 322 321 320 319 318
337 337 337 338 338 337 336 336 334 333 333 333 333 334 337 338 337 336 336 336 336 334 331 330 330 331 332 333 333 333 334 334 334 334 333 332 332 332 330 326 322 320 321 325 328 330 330 330 331 331 331 332 332 332 333 333 333 333 333 334 335 334 334 334 334 334 333 333 333 334 333 333 334 334 333 332 331 331 330 329 328 326 324 323 322
337 337 337 337 337 336 336 336 335 334 334 334 334 335 336 336 334 334 335 335 334 331 330 330 331 331 332 332 333 333 332 332 331 332 331 331 333 333 331 329 325 321 321 323 325 329 329 330 330 330 331 331 332 332 333 334 333 333 334 334 335 334 334 334 334 334 334 334 334 334 334 334 334 334 333 332 332 332 332 332 331 329 327 326 325
337 337 337 337 337 335 335 336 335 335 334 334 335 335 335 334 334 334 334 333 332 332 332 331 331 332 332 332 331 331 330 331 330 330 330 330 331 332 331 330 329 323 321 321 323 327 327 328 329 329 330 331 332 332 333 333 332 333 333 333 335 335 335 335 334 333 333 333 333 334 334 334 334 333 332 332 332 332 333 333 333 332 331 329 328
337 337 337 337 337 336 336 335 335 336 334 334 335 335 335 334 334 334 334 333 333 335 335 332 332 331 330 329 329 329 329 330 330 329 330 330 330 331 330 330 330 327 325 322 322 325 325 325 327 328 330 331 333 332 331 331 330 330 330 330 332 332 334 334 332 332 332 333 333 334 333 333 333 333 333 333 333 333 333 333 333 333 333 332 332
337 337 336 337 337 337 336 336 335 335 335 334 334 334 335 334 333 333 332 333 334 334 334 332 331 330 327 327 328 329 329 329 329 329 329 329 329 330 330 330 330 330 328 324 323 324 324 323 324 327 328 329 333 333 330 329 328 328 328 328 329 329 331 333 332 332 332 332 333 333 333 332 332 332 332 333 334 334 334 334 334 334 334 334 334
336 335 335 335 336 337 336 336 335 335 335 334 332 332 334 334 333 333 331 331 333 332 331 329 329 327 326 327 328 328 329 329 329 329 329 329 329 329 329 330 330 331 330 328 326 326 325 325 325 327 327 329 334 333 329 328 328 328 328 328 328 328 331 333 332 332 332 332 333 334 334 334 333 332 332 334 335 334 334 334 334 334 334 334 334
335 333 333 334 336 336 336 336 335 334 335 334 332 332 333 333 333 332 331 331 332 331 329 327 327 326 326 327 328 328 329 329 328 328 328 328 329 329 330 330 330 331 331 330 329 328 327 327 327 328 328 331 336 332 328 329 329 329 329 329 328 328 331 332 330 331 331 331 333 334 335 334 334 334 334 334 335 336 335 334 333 333 335 335 335
335 333 333 334 335 335 335 335 335 334 334 334 332 331 331 332 332 331 331 331 330 328 326 326 326 326 326 327 327 328 329 328 329 328 329 328 327 328 330 330 330 331 332 331 330 329 328 329 329 330 330 331 334 331 328 331 331 331 331 332 330 328 332 333 332 331 331 332 334 335 334 334 336 337 335 333 333 335 336 335 334 334 335 336 336
335 334 333 334 334 335 335 335 335 334 334 333 333 331 330 331 331 331 331 330 328 326 326 326 326 326 327 327 327 328 328 327 328 327 328 328 327 328 330 330 331 331 331 331 330 330 330 329 330 332 332 330 331 331 329 330 333 334 334 334 333 331 332 334 334 332 331 331 333 336 334 335 338 337 335 335 335 337 336 336 335 333 333 334 335
335 335 333 333 334 334 334 335 335 334 333 333 333 331 331 331 330 331 331 329 327 326 325 325 325 326 326 325 325 325 325 325 326 326 327 328 328 329 331 331 331 330 331 331 330 330 330 330 330 331 331 330 330 331 330 330 332 334 336 336 333 332 333 336 336 334 332 331 333 337 334 333 335 332 332 335 337 337 336 335 334 333 331 331 333
331 333 332 332 333 334 334 334 334 334 332 332 332 332 332 332 330 329 329 328 326 325 325 325 325 325 324 325 325 325 324 324 325 325 326 327 328 329 331 331 331 330 330 330 331 331 331 331 330 330 330 331 332 331 330 330 330 331 335 337 334 332 332 334 335 334 335 334 335 336 332 331 332 330 332 335 336 337 336 335 334 332 332 332 333
326 328 330 331 331 332 334 334 334 334 332 331 332 332 332 330 328 327 327 326 326 326 326 325 325 325 325 326 326 326 325 324 324 325 324 326 328 329 330 331 330 330 329 331 332 331 330 330 329 330 331 332 333 334 331 330 331 331 332 334 334 333 334 334 335 335 335 335 334 334 333 334 334 333 335 336 337 337 336 335 335 334 333 331 332
325 325 327 330 330 332 332 333 334 333 332 332 332 332 331 329 327 326 326 325 326 326 327 326 326 326 326 327 327 326 326 325 325 325 324 324 325 327 329 331 331 331 330 329 330 329 330 330 330 331 332 332 333 334 333 331 331 332 331 331 330 332 334 335 336 336 335 333 333 334 335 334 334 335 336 336 337 337 333 334 336 336 334 333 332
326 325 325 327 329 331 332 332 333 333 332 331 330 330 331 330 327 325 325 325 325 326 326 327 327 328 328 327 326 324 325 325 325 324 324 324 324 326 328 330 331 332 331 330 330 329 329 330 331 331 331 332 331 332 333 331 330 332 333 332 330 332 333 333 336 337 335 334 334 335 336 333 333 335 335 334 336 336 334 334 336 337 335 334 333
327 326 324 325 325 328 331 332 333 333 333 331 330 330 330 329 326 324 324 324 324 323 324 327 328 328 328 327 327 326 325 325 325 325 324 324 325 325 326 328 328 331 331 331 331 331 330 331 331 330 330 330 330 330 332 331 331 334 335 333 331 332 333 332 334 335 335 335 334 336 336 335 335 335 333 332 334 335 335 335 335 336 336 336 335
327 327 325 325 325 325 329 332 332 332 333 332 331 331 330 329 326 324 324 323 323 323 323 326 326 324 325 326 325 326 327 326 325 325 324 326 329 328 326 326 327 328 330 331 332 332 332 331 330 330 329 329 329 329 330 330 331 333 333 332 332 332 332 333 333 335 335 335 334 335 335 335 335 335 333 331 333 336 336 335 335 336 337 337 337
328 328 326 325 325 324 325 330 332 332 332 332 332 332 331 329 326 324 324 323 324 325 325 326 326 325 326 326 324 326 328 328 327 327 325 327 330 331 329 329 328 327 328 330 330 330 331 331 330 329 329 329 330 329 329 329 329 330 330 331 331 331 331 333 335 335 335 336 335 334 335 335 334 335 334 332 333 335 335 335 336 336 336 336 335
Wind_Speed
16 15 13 15 13 13 13 15 15 14 13 13 13 13 13 13 14 14 14 14 13 11 9 8 8 9 9 9 9 9 9 8 8 8 6 5 4 7 9 10 10 10 10 9 9 8 9 10 10 9 9 8 10 15 16 17 16 15 13 12 10 8 8 8 8 8 9 9 9 9 10 10 9 9 8 7 6 7 8 9 10 7 4 4 3
18 15 14 15 14 13 13 15 14 14 13 12 12 12 13 13 13 13 14 13 12 11 9 7 7 8 9 9 9 9 9 9 9 7 6 5 8 10 10 10 10 10 10 9 9 8 8 10 11 10 9 9 12 16 17 18 18 18 16 15 12 9 8 8 8 7 8 8 8 8 8 9 8 8 7 6 5 6 6 8 10 7 4 3 5
19 15 14 14 14 13 14 14 13 13 13 13 12 12 13 13 13 13 13 12 12 10 9 7 7 8 9 10 10 10 10 9 8 6 6 9 11 11 10 10 10 10 10 9 9 7 7 9 10 9 9 10 12 15 17 18 18 19 19 18 16 13 10 8 7 7 8 8 9 8 7 6 6 7 6 4 4 5 5 5 7 4 3 4 4
18 15 14 14 13 13 14 13 12 12 13 13 12 12 12 13 13 12 12 12 11 10 9 8 7 8 10 11 11 11 10 9 7 6 9 10 11 11 10 10 9 10 10 9 8 7 7 9 10 8 8 9 12 13 15 17 18 19 20 20 19 18 15 11 8 7 7 8 11 10 7 4 3 4 4 3 3 3 3 3 3 3 4 6 7
17 15 13 14 13 12 13 13 13 12 12 12 12 12 12 12 13 12 12 11 11 10 9 8 8 9 10 11 12 11 10 8 6 7 10 10 10 11 11 10 10 9 9 9 8 7 8 9 9 7 8 8 9 11 15 17 18 19 20 20 20 19 18 16 11 9 8 9 13 11 5 3 1 3 3 3 2 2 2 3 4 5 8 10 9
16 16 13 13 13 12 12 13 12 11 11 11 12 12 12 13 13 12 12 11 11 10 10 9 9 10 11 12 12 11 9 7 6 9 10 10 10 11 10 10 10 9 8 9 8 8 8 9 8 7 8 8 9 13 16 17 18 19 19 20 20 20 19 17 15 15 16 13 12 9 6 3 1 2 3 3 1 1 1 2 3 6 9 11 10
14 15 14 12 13 12 11 11 10 9 9 10 10 11 13 14 13 12 12 11 11 10 10 10 10 11 12 13 12 10 8 7 9 10 10 10 11 10 9 9 9 8 8 8 8 8 8 8 7 7 8 9 12 16 17 17 18 18 19 19 19 20 19 18 17 19 21 15 9 8 7 6 4 2 3 2 0 1 2 2 4 9 10 10 9
13 14 14 13 13 12 10 9 9 8 8 8 9 11 12 14 14 13 12 12 11 10 10 10 10 12 13 13 11 9 8 9 11 11 12 12 11 10 9 8 8 8 8 8 8 8 7 7 7 7 9 12 15 17 17 17 18 18 18 18 19 19 19 18 18 20 19 12 8 8 8 7 6 3 2 3 1 1 4 5 5 9 11 10 9
13 12 12 12 11 11 9 8 8 7 7 8 8 10 12 13 14 14 13 12 11 11 11 11 11 12 13 12 10 8 9 11 12 13 13 12 11 10 9 8 8 7 7 7 7 6 6 7 7 7 10 13 15 16 16 17 17 17 17 18 18 19 19 19 20 19 14 10 9 7 7 7 6 4 4 5 3 2 8 10 6 7 10 10 8
12 11 11 10 10 11 10 9 8 7 7 7 7 9 12 13 14 14 13 12 11 11 12 12 12 13 13 11 9 9 12 12 12 14 13 12 11 10 9 8 7 6 6 6 6 5 5 5 6 6 10 12 14 15 16 16 16 16 16 17 18 18 19 21 21 15 10 9 9 7 8 9 5 3 4 5 4 3 7 10 8 8 10 9 7
11 12 11 10 10 11 10 9 7 7 7 6 7 9 12 13 14 14 13 12 12 12 13 13 13 14 12 9 9 12 13 12 13 14 13 12 11 10 9 8 7 5 5 5 6 6 6 5 6 7 9 12 13 14 14 14 14 14 15 16 17 18 19 22 18 10 9 8 9 10 9 10 4 3 3 3 3 3 3 6 7 9 11 8 7
11 13 12 11 11 11 10 9 7 6 6 6 7 9 12 13 13 13 12 12 12 13 13 13 13 13 11 8 10 13 12 12 13 13 12 11 10 10 9 8 6 4 3 3 4 6 7 7 7 7 9 12 12 13 13 13 13 13 14 15 17 18 20 21 14 8 9 8 9 9 8 9 3 3 3 2 1 1 1 3 4 9 12 7 6
12 13 12 11 11 11 10 9 7 6 6 6 7 10 12 13 13 13 12 12 13 14 13 13 13 12 9 8 12 13 11 12 12 12 11 10 9 9 9 7 5 3 1 2 4 6 7 8 8 7 9 11 11 12 12 11 12 12 13 14 16 18 20 20 12 8 9 8 9 8 7 6 3 3 4 4 6 6 6 6 5 6 9 8 5
12 12 12 11 12 11 10 10 9 8 7 8 9 11 13 13 13 13 12 13 13 14 13 13 12 11 8 9 13 13 11 12 12 11 10 9 8 8 8 5 3 2 1 1 3 6 8 9 8 8 8 10 11 11 11 11 11 11 13 14 15 16 19 18 11 9 9 8 9 8 8 5 3 6 7 6 6 6 8 6 5 6 7 7 7
12 12 12 12 12 12 12 11 9 8 9 11 11 11 13 13 13 12 12 13 13 12 11 11 11 10 9 10 13 12 12 12 11 10 9 8 7 7 6 4 2 2 2 1 2 5 8 9 9 9 8 9 10 10 11 11 10 11 12 13 15 14 17 14 8 9 9 8 9 8 6 5 7 9 6 6 5 4 6 7 6 6 6 7 8
12 13 13 12 12 13 12 11 10 9 9 12 12 12 12 12 12 12 12 12 12 11 10 11 11 9 9 12 14 12 12 11 11 10 9 8 7 7 5 3 1 3 2 1 3 5 8 10 11 9 8 8 9 10 10 9 9 10 11 13 14 14 17 13 7 8 8 8 8 8 5 6 9 9 7 7 4 4 3 6 6 5 5 6 7
12 13 13 12 12 13 12 12 11 10 10 12 13 12 12 12 12 12 12 12 12 12 11 11 10 10 11 13 14 13 12 11 10 9 8 7 7 7 4 2 1 3 1 2 4 6 9 12 11 8 7 7 8 9 8 8 9 9 10 11 13 14 14 14 9 7 7 8 8 8 4 5 8 8 8 7 4 4 4 5 6 3 5 6 6
11 12 12 12 12 13 12 12 12 11 12 14 13 13 13 12 12 13 13 13 13 13 13 11 10 11 12 13 15 13 12 10 9 8 8 8 7 6 3 1 1 2 1 2 5 7 9 11 10 8 6 5 6 7 7 7 8 9 10 10 12 12 12 14 9 5 7 9 8 6 5 5 8 8 6 6 4 7 4 3 4 4 5 6 6
11 11 12 13 13 14 13 12 13 12 13 14 13 13 14 12 12 14 14 14 14 14 13 11 11 12 12 13 14 13 11 10 8 7 7 8 7 5 3 0 1 0 2 2 4 7 9 9 9 8 6 4 4 5 6 7 8 8 9 9 10 11 13 14 6 5 6 6 7 4 9 7 7 9 7 6 5 6 5 3 3 4 5 5 6
12 12 12 13 13 14 13 12 13 13 13 14 14 14 14 13 14 16 16 16 15 15 13 12 11 11 11 11 13 11 9 8 7 7 6 6 7 5 3 1 1 2 3 3 4 5 7 8 8 7 5 4 3 4 5 6 7 7 8 7 7 8 11 10 4 6 4 5 7 3 11 9 6 8 8 7 6 5 4 3 3 4 5 6 6
13 13 12 13 14 14 14 13 13 13 13 14 14 14 14 15 16 16 17 17 16 14 13 12 11 11 10 10 12 10 9 8 7 7 6 6 5 5 3 2 3 3 4 3 3 4 5 6 7 6 5 4 2 2 3 4 5 6 6 5 5 6 7 6 3 5 4 5 5 4 10 9 6 7 8 9 8 7 5 4 4 6 6 7 8
13 13 13 14 15 16 15 14 14 13 13 15 15 15 15 16 16 16 16 17 16 14 13 13 11 10 10 10 11 10 9 9 8 8 7 6 5 4 4 4 5 5 4 4 4 3 4 5 6 6 5 4 3 1 1 2 4 4 4 4 6 6 5 5 4 4 5 5 1 6 9 7 7 6 6 9 8 8 8 6 5 6 7 7 8
14 14 14 16 17 16 16 15 15 14 14 16 16 15 15 16 16 15 15 17 16 15 14 14 12 10 10 10 11 10 9 9 9 8 7 7 5 4 5 6 6 6 5 4 3 3 2 3 4 5 6 6 4 2 1 0 2 3 3 4 5 4 4 5 5 4 5 5 1 7 8 6 8 6 5 7 7 8 8 7 7 6 7 7 8
15 14 14 17 18 17 16 16 16 16 15 16 16 15 15 16 17 16 15 16 15 15 15 14 12 11 10 9 10 10 9 8 8 8 7 6 5 5 6 6 7 6 5 4 3 2 2 3 4 4 5 5 5 4 3 2 1 2 3 3 3 3 5 5 5 4 4 4 2 6 6 7 7 5 5 6 6 7 8 8 8 8 8 8 8
15 16 15 17 19 18 17 17 17 16 16 16 16 15 15 15 16 16 15 15 13 13 13 13 11 11 10 9 9 10 10 8 8 8 7 7 6 6 7 7 6 7 6 4 3 2 2 2 3 3 4 5 6 6 5 3 1 1 1 2 2 4 4 4 4 4 4 4 5 5 6 7 7 6 4 5 5 6 7 8 8 9 9 8 8
16 17 16 16 18 18 17 18 17 16 15 14 15 15 15 15 16 15 14 13 13 13 13 13 11 10 10 10 10 10 9 9 9 9 8 7 6 7 8 8 8 8 7 5 4 4 3 3 3 3 5 6 7 7 6 4 2 2 1 2 2 3 3 3 3 4 3 4 6 6 6 7 7 6 5 5 5 5 5 7 8 8 8 8 8
16 16 16 16 18 18 18 18 17 16 15 14 14 14 14 16 16 16 15 14 14 14 13 13 12 11 10 10 10 10 8 8 8 7 6 6 7 8 10 9 9 8 9 8 6 6 4 4 4 4 5 6 7 7 6 5 4 3 2 2 2 2 2 2 2 3 3 4 7 7 7 9 8 7 6 6 5 5 5 5 7 7 7 7 7
15 15 16 17 17 17 18 17 16 15 14 14 14 14 15 16 16 17 18 18 17 15 14 13 12 10 10 11 10 9 8 7 7 6 5 6 6 9 11 10 9 8 9 10 7 6 5 4 4 4 5 5 6 6 6 6 5 3 3 2 2 2 1 2 2 3 3 4 7 9 9 9 9 8 7 7 6 6 6 6 6 6 6 6 5
16 16 15 16 16 17 17 16 15 14 14 14 14 14 15 16 17 18 19 19 19 17 16 15 12 10 11 11 10 9 8 7 7 6 5 5 4 7 11 11 11 10 11 11 8 7 6 5 5 4 5 5 5 6 6 5 5 4 2 2 1 0 1 2 2 3 3 3 5 8 9 9 9 7 6 6 6 6 6 6 6 6 6 6 5
16 17 16 16 16 17 17 16 16 15 14 14 14 15 16 17 18 19 19 18 17 18 16 15 13 10 11 11 9 8 8 8 7 7 6 6 5 5 9 11 12 13 13 11 9 8 7 6 5 5 5 4 5 5 5 5 4 4 2 2 1 2 2 3 3 2 3 3 4 6 9 10 9 8 7 5 5 5 5 5 5 6 6 6 5
15 17 17 16 16 17 16 16 17 15 14 13 14 16 17 17 17 18 18 17 17 16 15 15 13 11 11 12 10 8 8 8 7 7 7 7 5 5 7 10 11 12 13 11 9 9 8 7 6 6 6 4 4 4 4 5 4 3 2 2 2 3 3 3 3 2 3 3 3 4 6 8 9 9 8 7 6 5 4 4 4 4 5 4 4
14 17 17 17 17 17 17 16 16 16 14 13 15 17 18 16 16 17 17 16 16 16 14 14 14 12 12 12 11 10 9 7 7 6 7 6 6 5 6 10 11 11 12 11 10 9 8 7 7 6 5 3 3 3 4 4 4 3 3 3 3 3 3 3 3 2 2 3 3 3 3 5 7 8 8 8 8 7 5 4 3 3 3 3 2
12 15 17 17 18 18 17 16 16 16 15 15 16 17 17 15 15 16 16 16 15 15 15 13 13 12 13 12 11 10 8 7 7 6 6 6 7 6 5 9 12 13 14 13 10 9 9 8 7 6 4 3 2 3 4 3 3 3 3 3 3 3 3 3 3 2 2 2 3 3 2 2 3 6 8 7 7 7 7 6 5 4 3 3 2
11 13 17 17 17 18 17 17 17 17 16 16 17 17 16 15 16 16 15 15 14 13 13 13 12 12 12 11 10 9 8 8 7 7 7 6 6 7 6 7 12 14 15 13 11 10 10 8 6 5 4 4 3 3 4 3 4 3 3 3 3 4 3 3 3 3 3 2 2 2 2 2 1 3 6 6 6 6 6 6 6 6 6 6 5
12 13 16 17 17 18 18 18 18 18 18 17 17 16 16 16 17 17 15 14 13 13 12 12 12 12 12 10 10 10 9 9 8 8 8 7 7 7 7 7 10 13 14 15 14 12 10 9 7 6 5 4 4 5 6 6 6 4 3 4 4 4 3 3 3 3 3 3 3 2 3 3 2 0 1 3 5 5 4 4 5 5 5 6 6
14 13 15 16 18 18 18 18 18 18 18 18 16 16 15 13 14 15 15 14 13 13 12 12 12 12 11 10 10 10 9 8 8 8 8 8 8 7 8 8 8 11 14 15 15 12 10 10 9 7 6 5 5 6 8 9 6 4 4 4 4 4 3 3 3 3 3 3 3 2 2 2 2 2 0 1 1 3 3 3 3 3 3 3 4
14 13 13 15 18 18 18 19 19 18 19 18 16 15 14 13 13 14 14 13 13 12 11 11 11 11 10 9 9 8 8 7 7 8 8 9 9 8 9 8 7 9 11 13 14 13 12 12 10 9 8 6 6 7 9 8 6 4 4 5 5 5 4 4 4 4 4 3 3 3 2 2 2 1 0 1 1 0 1 1 1 1 1 1 2
13 13 13 14 16 17 18 19 19 19 19 18 16 15 15 15 15 14 13 12 11 10 9 11 10 10 8 7 8 8 7 7 7 8 8 9 10 9 9 9 8 8 9 11 13 13 12 12 11 10 9 6 6 9 9 7 7 7 5 5 4 4 5 5 5 5 4 4 4 3 2 2 1 1 1 1 2 2 2 2 2 1 1 1 1
13 13 14 15 15 16 16 18 19 19 20 20 18 16 16 16 16 16 14 12 11 10 9 9 9 8 7 6 7 7 7 7 7 7 8 9 10 10 9 9 9 9 9 9 10 11 11 11 11 11 10 8 7 9 9 7 8 5 4 5 4 5 6 5 5 5 5 5 4 3 2 2 2 2 2 2 2 3 3 3 3 3 3 1 1
13 14 15 17 17 16 15 17 19 19 21 21 20 19 18 17 17 17 16 13 11 11 10 9 9 9 8 7 7 7 7 6 6 8 8 8 9 10 10 9 9 10 10 10 10 11 11 10 11 10 10 9 8 9 8 7 7 4 3 4 3 5 7 5 4 6 5 5 4 3 3 3 3 3 2 3 4 4 4 4 4 4 5 4 3
13 15 16 17 18 17 16 17 19 19 21 21 21 21 20 19 18 17 16 14 12 11 9 8 9 10 9 9 9 8 7 6 6 8 9 9 9 10 10 10 10 10 11 12 12 12 12 11 11 11 11 10 8 9 8 7 6 4 3 3 3 5 6 5 4 5 6 5 4 4 5 5 4 4 4 4 5 5 5 6 5 4 4 5 5
14 15 15 15 17 17 16 17 19 20 21 20 21 23 22 22 20 18 17 15 12 10 8 8 11 11 11 10 10 9 9 8 7 8 9 9 10 11 11 10 10 11 12 12 13 14 14 14 12 11 11 11 10 9 8 6 5 4 4 4 4 4 5 4 5 5 5 4 4 4 5 4 4 5 5 5 5 5 6 7 6 4 4 5 6
14 14 15 15 16 18 18 17 19 20 19 20 22 24 24 23 21 19 17 15 12 10 9 10 11 11 10 10 9 9 9 9 8 9 10 10 11 12 12 11 11 11 12 12 12 13 14 15 14 13 12 12 11 10 9 7 5 5 5 5 5 7 6 5 5 4 4 4 3 3 3 3 4 5 4 4 4 4 5 6 6 5 5 6 7
14 14 16 15 15 17 18 18 19 19 18 19 22 24 24 22 21 19 17 16 13 11 12 12 11 10 9 9 8 8 7 8 10 10 10 11 11 12 12 12 12 12 12 13 13 13 13 15 15 14 14 13 11 10 10 8 7 6 6 5 5 6 6 7 6 4 4 3 3 3 2 2 3 3 2 2 3 4 5 5 5 5 5 5 6
17 16 16 16 15 16 18 19 19 19 19 20 23 24 24 22 21 19 18 17 16 15 15 13 11 10 9 7 7 7 7 8 10 11 11 12 11 11 12 12 13 13 13 13 14 14 14 14 15 15 14 13 11 10 9 9 8 8 8 5 4 5 1 5 5 4 4 3 4 4 2 1 2 2 1 1 2 3 3 3 3 3 3 4 5
20 18 16 15 15 16 19 20 20 20 20 21 24 25 24 22 21 21 21 19 18 17 14 11 10 9 8 8 8 9 9 9 10 10 11 12 12 13 12 12 13 13 13 14 14 15 14 15 15 14 13 12 10 9 9 9 9 9 9 7 5 3 2 1 3 4 5 4 4 3 2 2 1 1 0 1 1 2 2 2 2 2 3 3 4
21 20 17 15 15 16 19 22 21 21 22 22 23 24 23 22 21 22 21 20 18 15 12 10 9 9 9 10 10 11 11 11 11 11 11 12 13 14 13 13 13 13 14 15 15 15 14 14 14 13 12 12 11 10 10 9 9 9 9 8 6 5 4 4 3 2 4 5 3 2 3 3 2 1 1 1 1 3 3 2 2 3 3 3 4
22 21 19 17 15 15 19 22 21 20 22 23 23 23 22 22 21 21 20 19 17 14 13 12 11 11 11 11 11 12 12 12 13 13 12 13 14 14 14 14 14 13 14 15 14 14 14 13 13 13 12 12 12 11 10 10 9 9 8 7 6 5 5 4 3 4 2 3 4 4 3 2 1 3 3 2 2 3 3 1 2 3 4 4 4
23 21 20 19 16 15 17 21 23 21 21 23 24 23 22 21 21 21 21 20 18 16 15 14 12 12 11 11 11 13 13 14 14 14 13 13 13 14 15 15 16 15 14 14 14 14 14 13 13 14 13 13 12 12 11 11 10 8 7 6 6 5 4 4 4 4 3 3 1 3 2 2 1 3 4 3 2 2 2 2 2 2 4 5 5
23 21 21 21 19 17 16 19 23 24 22 23 24 24 24 23 22 22 23 22 21 20 17 15 13 12 11 11 12 13 14 15 15 15 14 13 12 13 15 15 16 16 15 14 14 14 14 14 13 14 14 14 13 12 11 10 9 9 7 6 5 4 4 4 4 4 3 3 3 1 2 2 2 3 4 3 1 1 2 2 1 1 2 3 3
24 23 23 23 21 19 18 19 21 24 25 25 24 24 24 24 24 24 24 24 23 20 18 17 15 14 14 14 14 15 15 16 16 16 15 13 12 12 13 14 15 16 16 15 15 15 14 14 14 14 15 15 14 13 11 10 9 9 9 7 6 5 5 4 4 4 3 2 3 2 2 1 2 2 3 3 1 1 1 0 0 0 0 1 2
Wind_Direction
163 164 167 171 161 159 159 161 164 164 162 159 159 156 156 150 147 141 137 134 132 130 130 138 147 156 161 167 163 157 153 150 149 144 138 133 141 137 135 136 137 130 121 116 111 105 94 94 98 104 107 103 97 92 88 88 93 100 104 104 102 103 102 99 100 99 99 100 101 100 98 98 95 92 90 90 92 93 92 86 73 64 76 64 15
161 164 169 171 164 160 161 162 165 166 164 163 163 161 160 156 153 147 143 140 136 133 132 137 143 154 161 164 161 157 153 149 146 136 128 136 142 135 136 141 139 128 122 117 111 103 95 96 94 101 111 108 101 93 89 90 91 93 96 97 98 102 108 111 108 108 111 108 104 100 98 99 96 94 89 87 89 85 84 96 101 93 69 27 348
161 162 168 172 165 159 160 163 165 166 165 167 166 164 165 162 160 155 152 147 142 138 136 137 140 152 158 159 156 154 150 145 140 128 126 134 137 134 141 144 136 126 122 115 108 105 101 100 97 104 111 110 106 95 89 89 88 88 89 89 89 91 100 117 125 127 123 117 107 89 80 89 98 98 97 90 75 81 77 96 118 106 31 15 14
161 161 168 174 168 161 158 162 167 167 167 169 170 169 169 168 166 163 160 154 148 141 139 138 141 152 154 155 153 152 146 140 133 127 131 134 136 137 143 140 132 125 120 112 106 106 104 102 102 106 107 115 114 99 92 90 87 84 83 82 81 81 85 98 124 144 142 127 98 77 64 68 111 119 110 96 77 73 61 73 77 46 56 71 69
162 161 166 172 171 165 158 162 167 168 170 171 172 173 172 172 171 168 165 159 153 144 142 141 145 153 153 154 151 148 142 136 131 133 138 138 139 139 140 137 131 125 118 112 108 105 100 102 103 103 100 112 120 106 98 93 87 84 80 78 75 75 77 84 97 114 125 121 95 85 90 69 103 145 127 104 99 62 47 68 52 65 91 89 82
167 165 164 167 173 171 163 163 166 168 170 174 173 175 175 175 175 171 168 162 156 147 145 146 150 154 154 153 149 146 141 139 137 139 142 141 141 138 139 136 131 124 119 114 111 106 101 103 104 104 96 95 112 110 100 93 88 84 78 75 72 71 72 77 88 95 89 86 87 94 115 105 88 175 152 110 102 54 14 2 50 99 96 86 84
170 172 167 167 176 176 170 164 163 168 171 180 178 180 181 182 180 174 170 164 159 152 149 151 152 156 156 153 149 147 144 143 141 142 143 140 138 136 137 134 129 122 119 116 112 109 106 108 108 110 97 92 102 103 95 90 86 80 76 74 71 69 69 73 82 92 86 77 80 91 104 112 116 186 189 126 37 350 1 2 104 116 100 93 90
171 176 173 173 180 178 174 165 161 169 176 186 186 187 189 189 186 180 176 170 166 156 152 153 155 159 158 154 151 151 147 145 143 143 141 137 136 135 134 130 128 123 121 119 116 113 111 109 110 112 100 98 99 97 93 88 83 77 75 72 71 68 68 73 77 81 83 86 92 93 99 106 110 126 157 139 167 74 55 55 121 131 111 104 96
168 175 178 179 183 177 172 167 164 172 180 190 192 191 192 193 190 187 184 177 170 159 155 156 160 162 159 156 155 154 147 145 144 143 140 137 137 135 133 130 128 124 123 123 123 124 122 116 116 110 102 103 99 96 93 88 82 76 74 71 71 69 69 72 73 73 76 91 94 102 110 100 99 110 141 152 157 122 83 79 111 146 124 112 104
164 172 177 177 181 176 170 166 167 174 182 190 190 192 192 193 192 190 187 180 171 161 160 160 164 164 160 158 156 153 147 147 147 145 140 137 138 137 136 135 132 131 132 136 140 144 146 132 124 112 105 107 100 96 92 87 83 78 73 70 70 69 72 69 66 71 79 87 88 113 122 97 94 131 159 175 168 137 109 116 140 154 142 129 124
165 172 171 171 180 177 167 164 169 175 180 189 189 192 192 192 192 190 188 183 176 167 165 164 166 166 161 158 155 151 147 149 151 148 142 139 139 138 137 135 135 137 142 151 160 164 173 161 131 115 112 110 102 96 91 88 84 80 76 72 69 67 75 73 65 69 79 82 89 103 101 83 87 184 196 220 206 202 168 168 177 163 158 142 133
172 176 175 175 182 175 162 160 164 174 182 192 191 191 191 192 193 191 188 184 178 170 168 167 167 167 162 157 154 150 149 153 154 151 144 140 140 139 137 135 132 129 137 161 171 169 171 170 147 124 116 110 103 96 91 88 84 83 80 75 71 66 73 77 71 68 77 83 93 97 89 86 113 187 187 208 152 176 122 123 143 156 170 162 133
176 179 181 178 177 168 161 164 164 177 189 197 193 192 191 191 192 191 188 180 176 170 170 171 166 167 163 155 155 150 151 155 156 154 146 141 143 143 139 137 130 113 128 165 183 183 178 180 164 136 120 111 103 93 89 89 88 85 81 77 73 70 74 77 76 71 75 81 88 95 93 101 144 129 104 90 92 92 88 95 104 122 162 169 135
178 177 181 177 174 170 178 182 177 182 187 193 192 191 191 192 192 191 187 179 178 173 171 170 162 164 160 153 155 154 154 157 158 153 148 147 148 150 144 143 134 79 27 128 175 187 186 189 171 144 130 115 100 92 90 91 91 87 81 77 73 73 72 68 66 67 65 73 80 82 84 82 110 109 81 65 81 102 107 104 103 100 127 142 122
178 176 183 180 176 180 188 186 184 186 187 190 187 191 192 193 196 193 191 182 179 177 172 167 160 163 158 154 158 158 158 159 159 151 151 155 154 156 149 145 123 44 12 36 122 164 174 176 163 151 137 115 100 95 92 88 88 87 82 76 68 70 80 71 54 64 57 61 73 76 72 36 74 106 98 75 60 91 124 115 114 123 121 120 112
178 179 186 183 176 180 185 184 186 187 191 192 184 190 194 195 200 197 194 184 179 179 175 170 165 163 159 158 160 160 160 161 160 156 159 160 159 158 151 141 84 26 23 54 96 136 152 153 154 152 138 117 103 94 86 82 82 85 80 75 67 65 89 91 61 61 57 62 70 76 60 9 57 93 102 95 76 68 105 117 122 138 137 128 110
180 181 186 187 178 178 184 184 185 182 188 193 185 187 196 200 201 199 194 185 180 178 176 177 170 162 162 161 159 159 161 163 164 162 162 161 163 156 150 142 57 13 40 87 102 126 140 145 151 150 140 121 104 91 82 81 78 81 76 72 69 62 80 90 72 60 61 67 64 71 57 1 56 83 96 95 104 96 73 112 130 128 138 140 114
181 182 185 189 183 182 183 184 184 179 185 194 192 186 192 200 200 197 194 187 182 178 178 180 171 162 162 160 158 161 163 165 167 165 164 163 164 153 150 143 10 5 77 107 113 130 143 149 153 152 149 124 105 92 84 86 76 75 75 68 68 60 67 81 73 53 56 60 64 63 29 12 62 77 97 88 107 127 103 112 139 123 126 135 117
182 183 186 191 190 188 184 185 187 182 188 195 195 189 189 196 197 196 192 187 183 179 178 176 169 160 159 161 159 160 163 167 169 167 165 163 159 156 157 137 312 258 122 118 120 140 154 160 160 158 158 130 108 93 84 82 74 67 69 66 71 64 63 76 68 55 55 51 80 46 8 28 66 71 83 74 83 125 128 119 131 124 120 124 109
181 182 187 195 195 193 188 188 190 187 191 192 192 193 191 192 197 197 191 186 184 179 175 169 163 155 154 161 158 157 162 168 172 166 163 162 159 159 158 163 240 191 145 133 122 143 163 173 171 169 169 147 121 91 78 68 66 60 60 59 74 66 58 73 70 74 63 36 84 0 360 33 63 71 77 74 70 94 129 131 104 96 101 103 86
180 182 187 196 195 193 189 188 191 190 190 190 192 197 195 193 197 197 189 185 183 177 171 163 156 151 151 154 152 155 160 167 173 162 160 168 167 163 169 194 202 184 156 143 132 145 167 185 189 188 187 173 170 107 75 62 58 45 46 47 64 57 48 70 65 77 72 46 82 330 2 33 52 73 76 75 74 71 94 108 89 80 77 79 70
179 185 188 195 196 191 189 188 190 191 191 192 195 198 197 196 198 197 189 187 181 171 165 157 153 153 154 150 149 157 161 168 173 162 164 172 176 176 181 191 191 183 165 153 148 152 171 194 205 206 207 204 210 171 89 64 63 38 32 47 60 52 46 65 55 64 64 61 62 334 14 33 45 68 72 73 73 68 76 81 87 81 70 74 73
183 188 192 195 195 192 191 191 191 193 194 195 199 199 196 197 199 198 194 190 181 172 165 154 149 154 157 157 157 162 163 170 173 166 169 170 181 193 185 185 187 183 170 163 166 177 196 219 224 219 221 222 220 189 161 12 49 31 27 55 58 49 50 51 51 57 49 65 321 343 21 36 46 71 84 78 76 76 80 79 79 75 75 78 77
187 191 195 196 196 194 194 193 192 194 197 200 204 202 196 196 196 197 198 194 180 169 161 148 148 156 160 162 163 164 165 172 175 170 169 169 185 195 185 183 184 183 174 172 183 206 231 254 250 236 228 221 214 204 191 217 349 23 29 55 51 38 52 48 54 64 49 59 2 354 30 37 43 70 98 95 89 88 85 79 75 72 76 77 79
189 191 194 198 198 196 196 195 193 193 199 204 207 206 199 198 198 195 195 192 179 163 152 147 152 161 163 163 163 168 169 169 172 174 176 177 179 175 176 178 180 186 181 169 170 184 188 222 250 239 215 206 204 206 200 205 239 284 1 30 24 24 46 50 56 70 65 50 21 18 43 42 43 64 101 117 102 96 92 85 78 71 73 74 79
193 191 194 200 199 198 199 197 194 193 198 203 210 215 206 203 204 201 195 188 180 167 155 155 159 163 164 162 164 171 173 167 171 178 182 183 179 171 175 179 182 185 178 165 160 159 152 174 208 208 199 198 199 203 204 207 232 259 320 357 5 19 39 41 46 60 64 47 36 39 52 50 54 67 90 113 108 102 102 96 84 75 75 74 78
196 193 196 199 197 200 201 196 195 194 196 200 207 218 214 208 207 206 200 189 182 171 162 163 163 164 164 165 168 170 169 164 168 176 177 178 181 177 180 182 181 182 176 165 160 155 148 165 177 184 186 184 190 196 204 216 228 249 289 316 344 7 32 44 51 59 64 53 49 56 60 58 65 71 76 90 98 92 91 92 84 77 75 74 76
198 197 198 201 197 199 200 195 195 195 197 199 203 212 216 212 207 208 203 192 183 172 166 167 163 164 166 168 169 165 164 163 162 164 161 158 169 178 181 181 173 181 183 167 162 162 154 161 163 163 166 169 184 192 201 224 241 250 274 301 335 349 19 70 78 72 82 69 57 61 65 66 68 71 72 77 85 84 80 82 78 72 68 69 71
201 201 201 203 200 201 204 197 196 200 199 199 203 208 214 213 206 205 202 191 183 174 169 166 162 166 169 169 168 165 167 169 167 161 156 147 150 177 183 183 175 184 187 175 174 173 162 163 161 159 164 168 181 194 203 222 246 252 265 291 298 280 120 114 105 89 96 92 70 67 71 74 72 71 72 71 71 70 71 75 80 77 71 69 68
202 203 205 204 201 204 207 203 201 204 201 200 205 208 214 215 205 200 196 187 181 176 170 164 161 166 174 173 171 172 172 174 172 163 162 156 150 178 190 191 187 188 186 182 184 176 169 172 166 164 166 171 184 200 214 225 242 249 251 245 216 160 141 131 121 116 113 106 93 76 74 78 77 73 72 69 66 67 68 69 79 84 80 75 70
203 206 208 204 202 204 206 206 205 206 206 203 204 210 215 213 204 199 194 186 182 178 172 166 162 167 178 178 176 178 178 178 172 163 166 161 157 175 189 194 193 193 190 186 186 177 175 179 176 171 165 171 194 212 226 232 240 234 222 213 191 167 160 154 144 144 134 123 115 93 79 80 81 77 72 70 68 66 71 69 72 81 88 86 78
207 209 211 204 200 203 205 204 206 207 208 206 206 213 216 209 202 198 188 182 183 178 175 172 169 175 181 181 180 180 181 182 175 170 172 167 169 172 184 194 192 195 197 192 187 183 181 181 182 179 172 181 207 235 241 239 241 230 213 199 189 187 180 170 168 160 146 139 136 140 109 80 82 83 75 71 68 66 67 69 72 77 92 104 97
211 210 211 206 199 202 205 202 206 207 206 208 210 216 214 202 198 196 184 180 183 178 176 176 177 185 188 186 188 186 186 190 188 188 188 180 175 172 183 195 193 197 202 198 191 188 186 183 186 187 192 211 223 246 254 252 246 234 222 207 199 197 190 186 184 176 166 157 143 158 165 109 90 87 81 76 71 68 67 66 68 68 67 68 64
211 209 207 208 203 203 205 202 205 207 207 209 212 218 208 195 194 190 180 177 179 178 176 178 184 191 193 191 196 197 195 198 200 201 201 195 179 174 182 191 197 203 204 200 196 193 191 188 192 203 217 224 229 244 249 251 242 231 226 218 209 205 201 197 198 196 187 181 169 163 166 166 153 75 78 81 77 70 69 71 68 67 67 65 62
206 208 203 206 209 207 206 204 206 208 209 211 213 217 208 199 198 191 181 174 171 176 180 184 191 194 194 196 203 205 204 205 206 205 206 201 187 182 186 191 200 202 200 200 201 201 200 199 202 211 227 232 234 242 240 229 217 211 216 221 218 211 210 206 204 208 199 192 186 180 173 167 173 153 63 76 83 76 69 75 76 75 74 78 78
200 206 201 204 213 212 208 206 208 210 211 213 212 213 209 200 197 192 186 179 173 177 183 190 195 197 199 205 211 211 213 216 212 208 206 200 195 193 194 198 200 197 198 202 205 209 212 212 214 217 227 241 245 250 254 243 227 216 212 215 216 208 210 214 204 204 204 198 195 194 191 181 176 186 209 351 64 79 80 78 81 89 91 93 93
198 202 196 203 217 216 211 208 208 211 214 215 213 211 207 196 191 189 185 183 181 181 185 192 197 202 207 216 224 226 227 227 219 211 208 203 201 204 204 203 199 193 197 203 207 215 222 221 224 227 230 246 257 257 265 271 286 302 258 229 215 204 204 210 204 203 205 201 206 206 202 203 200 199 200 314 312 37 121 126 92 100 113 125 119
196 200 194 200 217 219 214 212 209 211 214 214 212 210 205 200 198 194 187 185 185 184 188 197 201 205 212 225 234 239 236 227 221 217 213 211 208 207 208 207 205 195 193 201 206 215 226 229 231 234 236 244 257 257 263 283 310 322 296 272 261 235 220 210 210 215 207 201 209 210 201 199 190 199 235 248 252 269 269 241 210 189 170 165 167
194 198 196 196 210 219 215 212 211 211 215 213 210 210 205 202 202 200 197 193 192 192 195 203 208 211 219 228 229 232 230 220 219 218 215 214 210 208 209 211 211 204 197 197 200 208 219 226 229 233 239 239 247 257 261 279 294 306 307 297 292 268 247 223 218 224 210 200 208 217 219 212 200 210 232 253 248 265 282 275 265 244 213 201 303
194 197 201 198 203 216 214 212 214 213 213 211 209 209 204 200 200 201 203 203 203 202 203 208 212 215 218 218 216 215 214 209 209 210 209 209 209 210 213 217 216 210 206 199 198 205 209 217 221 225 234 235 240 253 257 267 273 278 289 273 259 265 262 240 221 224 213 206 209 212 224 228 231 240 247 248 247 257 268 269 275 261 237 242 279
194 198 203 201 201 210 214 213 213 212 212 208 205 204 201 199 199 200 203 206 207 207 212 214 207 208 212 209 206 205 201 199 198 201 206 208 210 214 216 220 218 211 208 206 207 211 210 214 217 218 223 225 230 246 253 255 257 257 257 251 245 259 261 237 210 213 210 213 221 215 221 226 234 249 247 237 237 245 254 261 267 255 237 249 268
192 197 201 202 200 204 212 212 209 209 211 207 203 202 201 201 200 199 201 201 200 203 210 210 202 203 205 203 199 199 199 196 196 200 205 208 209 213 216 218 218 213 210 210 213 216 215 216 217 217 221 221 224 236 243 241 239 240 239 251 248 231 234 221 195 198 202 205 222 231 232 226 228 243 250 252 248 241 242 257 270 264 239 243 257
190 193 198 199 200 201 205 208 208 207 206 205 203 201 199 200 200 200 200 197 195 199 205 207 206 202 200 199 194 196 202 201 204 207 208 210 208 209 214 216 216 215 214 213 215 217 217 217 217 218 221 222 223 228 233 230 224 229 234 240 225 206 205 199 182 179 191 197 198 216 222 201 215 233 244 252 250 244 238 246 265 271 263 252 250
191 190 195 196 198 199 201 206 208 203 200 199 198 197 196 195 196 198 198 197 197 202 208 212 211 206 202 201 200 202 207 208 209 210 210 210 207 205 210 214 216 215 215 215 218 220 219 218 218 219 219 219 221 224 227 225 217 215 227 243 241 226 198 171 169 164 175 190 156 173 203 178 207 229 218 219 223 233 241 242 252 264 274 267 254
203 196 194 195 196 195 196 204 207 201 198 194 191 193 194 189 189 193 195 194 198 205 211 213 212 210 209 210 215 217 220 220 213 211 210 207 205 206 208 213 216 217 216 215 216 217 219 219 218 218 217 214 216 218 220 222 216 211 219 235 258 268 212 149 173 174 171 182 158 176 220 192 220 246 175 182 198 213 232 244 249 252 265 258 249
214 207 198 195 197 193 192 201 206 201 196 190 189 191 189 185 185 190 192 191 195 203 210 213 213 214 216 218 223 224 226 227 222 219 215 209 208 209 210 214 216 218 218 216 215 214 216 218 217 216 214 212 212 211 214 218 219 218 221 226 229 257 311 266 207 182 176 188 178 182 183 163 220 260 161 206 205 210 217 227 253 251 250 245 235
217 212 205 196 193 191 191 197 204 203 194 189 189 187 184 185 189 190 190 190 194 198 202 206 209 215 221 222 222 223 225 226 227 228 225 221 216 212 214 217 218 220 219 218 220 217 215 217 217 215 213 214 211 207 215 218 222 229 227 225 225 235 260 268 268 226 185 182 191 191 178 187 209 190 188 219 235 252 241 215 237 252 248 237 232
216 213 208 202 195 190 190 193 199 203 199 193 189 186 185 187 191 190 190 192 193 193 197 199 201 210 217 219 219 220 223 226 230 232 232 232 225 216 215 218 219 221 220 220 221 219 216 216 216 215 214 216 211 207 219 221 219 229 229 226 232 240 247 244 255 282 272 206 187 168 188 231 212 186 210 220 239 275 281 250 249 269 274 261 246
217 213 207 204 200 194 189 188 194 199 200 197 192 189 191 192 193 193 192 194 191 190 197 201 203 209 215 217 221 226 228 231 233 235 234 232 227 220 217 219 220 220 220 221 222 221 219 217 218 216 215 218 215 211 221 222 210 211 220 228 235 243 253 250 248 269 296 289 225 147 192 254 201 210 242 252 250 284 283 269 260 267 287 286 273
217 213 205 202 200 198 194 188 190 195 196 197 196 195 195 195 197 196 193 191 191 190 193 197 201 209 215 218 223 230 234 234 233 234 232 225 221 221 220 222 223 219 219 220 222 225 223 221 222 221 218 221 221 221 230 232 221 215 220 229 234 241 249 253 255 256 268 286 290 262 241 234 208 232 264 270 262 283 271 285 292 247 281 300 298
216 211 205 201 198 198 200 193 189 192 195 196 197 198 197 196 198 198 192 191 193 193 194 197 203 211 217 219 223 229 234 236 235 235 234 225 217 218 218 221 221 217 217 220 222 228 228 224 224 225 225 225 227 232 237 239 235 231 232 236 237 242 245 244 248 244 241 263 277 277 279 259 219 224 264 268 188 161 241 353 66 178 278 308 303